Location: Newark
(43.0000°N, 1.6781°W)
Time: 01:58:09
(UTC+00:00)

Vanguard 1 Rocket - Pass Details

Date: 21 April 2021
Orbit: 652 x 4224 km, 34.3° (Epoch: 06 May)

Event Time Altitude Azimuth Distance (km) Brightness Sun altitude
Rises 13:47:14 0° 242° (WSW) 3,981 11.2 52.0°
Reaches altitude 10° 13:50:47 10° 232° (SW) 2,623 10.6 51.6°
Maximum altitude 13:55:33 27° 174° (S) 1,361 9.1 51.0°
Drops below altitude 10° 13:59:21 10° 115° (ESE) 2,061 9.2 50.5°
Sets 14:01:47 0° 102° (ESE) 2,967 9.8 50.1°
